Lexington Weather

Lexington, Massachusetts, USA

25°F
1/21/2021 10:12am 
  • Lexington Conditions: Clear
  • Temperature: 25.0°F / -3.9°CWarmer 2.2°F than last hour.
  • Dew Point: 13.8°FIncreased 1.6°Fsince last hour.
  • Relative Humidity: 62%Decreased 1.0% since last hour.
  • Wind: Calm, 10-min avg: Calm, gust: 4 mph
  • Barometer: 29.78 in Steady
  • Visibility: 10 miles
  • Snow Today: Trace
  •   

Regional Weather Roundup
for Boston / Norton, MA

        
000
ASUS41 KBOX 202305
RWRBOX

REGIONAL WEATHER ROUNDUP
NATIONAL WEATHER SERVICE BOSTON/NORTON MA
600 PM EST WED JAN 20 2021

NOTE:  "FAIR" INDICATES FEW OR NO CLOUDS BELOW 12,000 FEET WITH NO 
SIGNIFICANT WEATHER AND/OR OBSTRUCTIONS TO VISIBILITY.

MAZALL-210000-
EASTERN MASSACHUSETTS
  
CITY           SKY/WX    TMP DP  RH WIND       PRES   REMARKS
BOSTON         PTCLDY    32  14  47 NW14G24   29.90R WCI  22          
BEVERLY        CLEAR     32  13  45 NW16G22   29.88R WCI  21          
LAWRENCE       CLEAR     30  17  58 N9G20     29.91R WCI  22          
BEDFORD        CLEAR     30  16  56 W9        29.89R WCI  22          
BLUE HILL      NOT AVBL                                               
NORWOOD        CLEAR     32  15  49 W12       29.90R WCI  23          
MARSHFIELD     PTCLDY    34  16  47 NW9G20    29.88R WCI  26          
PLYMOUTH       PTCLDY    32  14  47 NW14G24   29.87R WCI  22          
TAUNTON        PTCLDY    34  16  47 NW8G17    29.89R WCI  27          
NEW BEDFORD    PTCLDY    31  22  69 NW7       29.89R WCI  24          
$$

MAZALL-210000-
CAPE COD AND THE ISLANDS
  
CITY           SKY/WX    TMP DP  RH WIND       PRES   REMARKS
FALMOUTH       MOCLDY    32  19  59 N5        29.87R WCI  27          
HYANNIS        MOCLDY    34  21  59 NW6       29.84R WCI  29          
CHATHAM        MOCLDY    33  23  66 VRB3      29.86R                  
PROVINCETOWN   PTCLDY    35  20  54 N17G31    29.87R WCI  25          
NANTUCKET      CLOUDY    36  21  54 NW15G23   29.85R WCI  27          
MARTHAS VNYRD  MOCLDY    30  26  85 NW8       29.88R WCI  22          
$$
 
MAZALL-210000-
CENTRAL AND WESTERN MASSACHUSETTS
  
CITY           SKY/WX    TMP DP  RH WIND       PRES   REMARKS
WORCESTER      PTCLDY    26  15  63 NW14      29.88R WCI  14          
FITCHBURG      MOCLDY    28  19  69 NW14G25   29.92R WCI  17          
ORANGE         MOCLDY    28  14  55 W12G20    29.93R WCI  18          
SPRINGFIELD    NOT AVBL                                               
WESTFIELD      PTCLDY    27  10  49 NW18G25   29.96R WCI  14          
NORTH ADAMS    CLOUDY    24  10  55 W16G23    29.97R WCI  11          
PITTSFIELD     PTCLDY    20   8  60 W16G25    29.93R WCI   6          
$$
 
RIZALL-210000-
RHODE ISLAND
  
CITY           SKY/WX    TMP DP  RH WIND       PRES   REMARKS
PROVIDENCE     PTCLDY    32  16  51 NW13G21   29.92R WCI  22          
NEWPORT        PTCLDY    31  20  63 NW14      29.90R WCI  21          
BLOCK ISLAND   CLEAR     32  15  49 NW16G28   29.93R WCI  21          
SMITHFIELD     FLURRIES  29  19  66 NW12      29.90R WCI  19          
WESTERLY       CLEAR     30  11  45 NW9G17    29.93R WCI  22          
$$
 
CTZALL-210000-
CONNECTICUT
  
CITY           SKY/WX    TMP DP  RH WIND       PRES   REMARKS
BRADLEY INTL   PTCLDY    28   8  43 NW20G29   29.98R WCI  15          
HARTFORD       CLEAR     31   9  39 NW15G22   29.99R WCI  20          
BRIDGEPORT     PTCLDY    32  13  45 NW16      29.99R WCI  21          
DANBURY        PTCLDY    29   5  36 NW13G21   30.00R WCI  19          
GROTON         CLEAR     32  12  43 NW15G25   29.95R WCI  22          
NEW HAVEN      PTCLDY    33  19  56 NW8       29.98R WCI  26          
CHESTER        FAIR      30  10  43 NW10G22   29.95R WCI  21          
MERIDEN        CLEAR     30  10  43 NW13G26   29.98R WCI  20          
WILLIMANTIC    PTCLDY    30  13  49 NW15G23   29.97R WCI  19          
OXFORD         PTCLDY    27  13  55 NW17G24   29.96R WCI  14          
$$

MEZ002-015-021-024-NHZ003-005-008-011-012-014-VTZ005-008-210000-
NORTHERN NEW ENGLAND
  
CITY           SKY/WX    TMP DP  RH WIND       PRES   REMARKS
PORTLAND ME    PTCLDY    27  17  66 NW6       29.88R WCI  20          
BANGOR ME      MOCLDY    27  12  53 NW12      29.85R WCI  17          
CONCORD NH     LGT SNOW  26  19  74 NW12G22   29.91R WCI  16          
MANCHESTER NH  PTCLDY    30  16  56 NW6       29.89R WCI  24          
NASHUA NH      CLOUDY    30  18  60 NW12      29.92R WCI  20          
PORTSMOUTH NH  NOT AVBL                                               
JAFFREY NH     PTCLDY    25  14  63 NW9G17    29.88R WCI  15          
KEENE NH       PTCLDY    27  17  66 W9        29.93R WCI  18          
BURLINGTON VT  PTCLDY    18   3  52 W10       30.01R WCI   6          
MT. WASHINGTON NOT AVBL                                               
$$

NYZ052-076-210000-
EASTERN NEW YORK
  
CITY           SKY/WX    TMP DP  RH WIND       PRES   REMARKS
ALBANY         PTCLDY    20   9  62 W13G21    30.03R WCI   7          
NEW YORK CITY  MOCLDY    35  12  38 NW21      30.02R WCI  24          
$$
 
ANZALL-210000-
MARINE OBSERVATIONS
  
STATION/POSITION TIME  TEMP    WIND        PRES    VSBY  WAVE
                       AIR SEA DIR/SP/G                  HT/PER
                 (UTC) (F)     (DEG/KT/KT) (MB)    (MI)  (FT/S)
BOSTON BUOY      2250   35 43  320/ 19/ 25 1012.0R         3/ 4
BUZZARDS BAY     2200          320/ 26/ 29 1012.6R
NANTUCKET SOUND  2250      40  310/ 16/ 19   N/A           2/ 3
MASS BAY-STELLWA 2204   36     320/ 19/ 25 1009.8R  1 7/8  2/ 3
ISLE OF SHOALS   2200   33     330/ 15/ 17 1010.9R
S OF BLOCK IS    2226      48                N/A           6/ 5
$$

......................KEY.........................
  SKY/WX - SKY CONDITION/PRESENT WEATHER
  TMP    - TEMPERATURE IN FAHRENHEIT
  DWPT   - DEWPOINT IN FAHRENHEIT
  RH     - RELATIVE HUMIDITY IN PERCENT
  WIND   - DIRECTION AND SPEED IN MPH
  PRES   - MEAN SEA LEVEL PRESSURE IN INCHES OF HG
  WCI    - WIND CHILL INDEX
  VSB    - VISIBILITY IN MILES
  HX     - HEAT INDEX
  TC     - TEMPERATURE IN CELSIUS
  VRB    - VARIABLE WIND DIRECTION
  N/A    - NOT AVAILABLE
  
      

Other recent Regional Weather Roundups

Thu Jan 21, 9:04am

Thu Jan 21, 7:04am

Thu Jan 21, 6:04am

Thu Jan 21, 5:04am

Thu Jan 21, 4:04am

Thu Jan 21, 3:04am

Thu Jan 21, 2:04am

Thu Jan 21, 1:04am

Thu Jan 21, 12:04am

Wed Jan 20, 11:04pm

Wed Jan 20, 10:05pm

Wed Jan 20, 9:04pm

Wed Jan 20, 8:04pm

Wed Jan 20, 7:04pm

Wed Jan 20, 5:05pm

Wed Jan 20, 1:04pm

Wed Jan 20, 12:04pm

Wed Jan 20, 11:04am

Wed Jan 20, 10:04am

Wed Jan 20, 9:05am

Wed Jan 20, 8:04am

Wed Jan 20, 7:04am

Wed Jan 20, 6:04am

Wed Jan 20, 5:04am

Wed Jan 20, 4:04am

Wed Jan 20, 3:05am

Wed Jan 20, 2:04am

Wed Jan 20, 1:04am

Wed Jan 20, 12:04am

Tue Jan 19, 11:04pm

Tue Jan 19, 10:04pm

Tue Jan 19, 9:04pm

Tue Jan 19, 8:04pm

Tue Jan 19, 7:04pm

Tue Jan 19, 6:05pm

Tue Jan 19, 5:04pm

Tue Jan 19, 4:05pm

Tue Jan 19, 3:04pm

Tue Jan 19, 2:04pm

Tue Jan 19, 1:04pm

Tue Jan 19, 12:05pm

Tue Jan 19, 11:04am

Tue Jan 19, 10:05am

Tue Jan 19, 9:04am

Tue Jan 19, 8:04am

Tue Jan 19, 7:04am

Tue Jan 19, 6:04am

Tue Jan 19, 5:04am

Tue Jan 19, 4:04am

Tue Jan 19, 3:04am

Tue Jan 19, 2:04am

Tue Jan 19, 1:04am

Tue Jan 19, 12:04am

Mon Jan 18, 11:04pm

Mon Jan 18, 10:04pm

Mon Jan 18, 9:04pm

Mon Jan 18, 8:05pm

Mon Jan 18, 7:04pm

Mon Jan 18, 6:05pm

Mon Jan 18, 5:04pm

Mon Jan 18, 4:04pm

Mon Jan 18, 3:04pm

Mon Jan 18, 2:04pm

Mon Jan 18, 1:04pm

Mon Jan 18, 12:04pm

Mon Jan 18, 11:04am

Mon Jan 18, 10:04am

Mon Jan 18, 9:04am

Mon Jan 18, 8:04am

Mon Jan 18, 7:04am

Mon Jan 18, 6:04am

Mon Jan 18, 5:04am

Mon Jan 18, 4:04am

Mon Jan 18, 3:04am

Mon Jan 18, 2:04am

Mon Jan 18, 1:04am

Mon Jan 18, 12:04am

Sun Jan 17, 11:04pm

Sun Jan 17, 10:04pm

Sun Jan 17, 9:04pm

Sun Jan 17, 8:04pm

Sun Jan 17, 7:04pm

Sun Jan 17, 6:04pm

Sun Jan 17, 5:04pm

Sun Jan 17, 4:05pm

Sun Jan 17, 3:04pm

Sun Jan 17, 2:04pm

Sun Jan 17, 1:04pm

Sun Jan 17, 12:04pm

Sun Jan 17, 11:04am

Sun Jan 17, 10:04am

Sun Jan 17, 9:04am

Sun Jan 17, 8:04am

Sun Jan 17, 7:04am

Sun Jan 17, 6:04am

Sun Jan 17, 5:04am

Sun Jan 17, 4:04am

Sun Jan 17, 3:04am

Sun Jan 17, 2:04am

Sun Jan 17, 1:04am

Sun Jan 17, 12:04am

Sat Jan 16, 11:05pm

Sat Jan 16, 10:04pm

Sat Jan 16, 9:04pm

Sat Jan 16, 8:05pm

Sat Jan 16, 7:04pm

Sat Jan 16, 6:04pm

Sat Jan 16, 5:05pm

Sat Jan 16, 4:05pm

Sat Jan 16, 3:05pm

Sat Jan 16, 2:04pm

Sat Jan 16, 1:04pm

Sat Jan 16, 12:04pm

Sat Jan 16, 11:04am

Sat Jan 16, 10:05am

Sat Jan 16, 9:04am

Sat Jan 16, 8:04am

Sat Jan 16, 7:04am

Sat Jan 16, 6:04am

Sat Jan 16, 5:04am

Sat Jan 16, 4:04am

Sat Jan 16, 3:05am

Sat Jan 16, 2:04am

Sat Jan 16, 1:04am

Sat Jan 16, 12:05am

Fri Jan 15, 11:05pm

Fri Jan 15, 10:04pm

Fri Jan 15, 9:04pm

Fri Jan 15, 8:04pm

Fri Jan 15, 7:05pm

Fri Jan 15, 6:05pm

Fri Jan 15, 5:05pm

Fri Jan 15, 4:05pm

Fri Jan 15, 3:04pm

Fri Jan 15, 2:05pm

Fri Jan 15, 1:04pm

Fri Jan 15, 12:05pm

Fri Jan 15, 11:04am

Fri Jan 15, 10:04am

Fri Jan 15, 9:05am

Fri Jan 15, 8:04am

Fri Jan 15, 7:04am

Fri Jan 15, 6:04am

Fri Jan 15, 5:05am

Fri Jan 15, 4:04am

Fri Jan 15, 3:04am

Fri Jan 15, 2:04am

Fri Jan 15, 1:04am

Fri Jan 15, 12:05am

Thu Jan 14, 11:04pm

Thu Jan 14, 10:04pm

Thu Jan 14, 9:04pm

Thu Jan 14, 8:05pm

Thu Jan 14, 7:04pm

Thu Jan 14, 6:04pm

Thu Jan 14, 5:04pm

Thu Jan 14, 4:05pm

Thu Jan 14, 3:04pm

Thu Jan 14, 2:04pm

Thu Jan 14, 1:04pm

Thu Jan 14, 12:05pm

Thu Jan 14, 11:05am

Thu Jan 14, 10:04am

Thu Jan 14, 9:04am

Thu Jan 14, 8:04am

Thu Jan 14, 7:04am

Thu Jan 14, 6:04am

Thu Jan 14, 5:04am

Thu Jan 14, 4:04am

Thu Jan 14, 3:04am

Thu Jan 14, 2:04am

Thu Jan 14, 1:04am

Thu Jan 14, 12:04am

Wed Jan 13, 11:04pm

Wed Jan 13, 10:04pm

Wed Jan 13, 9:04pm

Wed Jan 13, 8:05pm

Wed Jan 13, 7:04pm

Wed Jan 13, 6:04pm

Wed Jan 13, 5:04pm

Wed Jan 13, 4:04pm

Wed Jan 13, 3:05pm

Wed Jan 13, 2:04pm

Wed Jan 13, 1:04pm

Wed Jan 13, 12:04pm

Wed Jan 13, 11:04am

Wed Jan 13, 10:04am

Wed Jan 13, 9:05am

Wed Jan 13, 8:04am

Wed Jan 13, 7:04am

Wed Jan 13, 6:04am

Wed Jan 13, 5:04am

Wed Jan 13, 4:04am

Wed Jan 13, 3:04am

Wed Jan 13, 2:04am

Wed Jan 13, 1:04am

Wed Jan 13, 12:05am

Tue Jan 12, 11:04pm

Tue Jan 12, 10:04pm

Tue Jan 12, 9:04pm

Tue Jan 12, 8:05pm

Tue Jan 12, 7:04pm

Meta data:

ID: 62c548f1-a897-4e08-bc6f-d1d35ef3ab72
Link: https://api.weather.gov/products/62c548f1-a897-4e08-bc6f-d1d35ef3ab72